Doncaster Sheffield, United Kingdom

1:08 PM BST on June 22, 2017 (GMT +0100)
Robin Hood Airport

Weather History for EGCN - May, 2014

Change the Weather History Date:

Sunday, May 18, 2014

  Actual Average Record
Temperature  
Mean Temperature 62 °F -  
Max Temperature 75 °F - - ()
Min Temperature 48 °F - - ()
Degree Days  
Heating Degree Days 4    
Growing Degree Days 12 (Base 50)    
Moisture  
Dew Point 52 °F    
Average Humidity 66    
Maximum Humidity 93    
Minimum Humidity 47    
Precipitation  
Precipitation 0.00 in - - ()
Sea Level Pressure  
Sea Level Pressure 29.86 in    
Wind  
Wind Speed 8 mph ()    
Max Wind Speed 16 mph    
Max Gust Speed -    
Visibility 6.2 miles    
Events      
T = Trace of Precipitation, MM = Missing Value Source: Averaged Metar Reports

Daily Weather History Graph

Daily Weather History Graph

Search for Another Location

Airport or City:

Trip Planner

Search our weather history database for the weather conditions in past years. The results will help you decide how hot, cold, wet, or windy it might be!

Date:

Astronomy

May. 18, 2014 Rise Set
Actual Time 4:59 AM BST 9:02 PM BST
Civil Twilight 4:13 AM BST 9:48 PM BST
Nautical Twilight 3:08 AM BST 10:54 PM BST
Astronomical Twilight 1:32 AM BST 12:28 AM BST
Moon No Moon Rise 8:36 AM BST (5/18)
Length of Visible Light 17h 34m
Length of Day
16h 03m
Waning Gibbous, 83% of the Moon is Illuminated
May 18
Waning Gibbous
May 21
Last Quarter
May 28
New
Jun 5
First Quarter
Jun 13
Full

Hourly Weather History & Observations

Time (BST) Temp. Dew Point Humidity Pressure Visibility Wind Dir Wind Speed Gust Speed Precip Events Conditions
12:20 AM 51.8 °F 44.6 °F 76% 30.04 in - South 5.8 mph - N/A   Clear
12:50 AM 51.8 °F 44.6 °F 76% 30.04 in - South 5.8 mph - N/A   Clear
1:20 AM 51.8 °F 46.4 °F 82% 30.04 in - Variable 3.5 mph - N/A   Clear
4:50 AM 50.0 °F 46.4 °F 87% 29.98 in - South 4.6 mph - N/A   Clear
5:20 AM 50.0 °F 46.4 °F 87% 29.98 in - SE 4.6 mph - N/A   Clear
5:50 AM 48.2 °F 46.4 °F 93% 29.98 in - SSE 3.5 mph - N/A   Clear
6:20 AM 51.8 °F 48.2 °F 88% 29.98 in - SE 3.5 mph - N/A   Clear
6:50 AM 53.6 °F 50.0 °F 88% 29.95 in - South 4.6 mph - N/A   Clear
7:20 AM 55.4 °F 50.0 °F 82% 29.95 in - SSE 6.9 mph - N/A   Clear
7:50 AM 59.0 °F 51.8 °F 77% 29.95 in - SSE 5.8 mph - N/A   Clear
8:20 AM 60.8 °F 51.8 °F 72% 29.95 in - SSE 5.8 mph - N/A   Clear
8:50 AM 62.6 °F 51.8 °F 68% 29.95 in - South 8.1 mph - N/A   Clear
9:20 AM 66.2 °F 53.6 °F 64% 29.92 in 6.2 mi SE 9.2 mph - N/A   Mostly Cloudy
9:50 AM 64.4 °F 51.8 °F 64% 29.92 in 6.2 mi South 9.2 mph - N/A   Mostly Cloudy
10:20 AM 68.0 °F 53.6 °F 60% 29.92 in 6.2 mi SSE 11.5 mph - N/A   Partly Cloudy
10:50 AM 68.0 °F 53.6 °F 60% 29.89 in 6.2 mi South 13.8 mph - N/A   Partly Cloudy
11:20 AM 69.8 °F 55.4 °F 60% 29.89 in 6.2 mi South 15.0 mph - N/A   Partly Cloudy
11:50 AM 69.8 °F 53.6 °F 56% 29.86 in 6.2 mi SSE 15.0 mph - N/A   Partly Cloudy
12:20 PM 69.8 °F 53.6 °F 56% 29.86 in 6.2 mi South 16.1 mph - N/A   Partly Cloudy
12:50 PM 69.8 °F 53.6 °F 56% 29.86 in 6.2 mi SSE 16.1 mph - N/A   Scattered Clouds
1:20 PM 71.6 °F 53.6 °F 53% 29.86 in 6.2 mi South 16.1 mph - N/A   Scattered Clouds
1:50 PM 73.4 °F 55.4 °F 53% 29.83 in 6.2 mi SSE 15.0 mph - N/A   Scattered Clouds
2:20 PM 73.4 °F 55.4 °F 53% 29.83 in 6.2 mi SSE 13.8 mph - N/A   Partly Cloudy
2:50 PM 73.4 °F 55.4 °F 53% 29.80 in 6.2 mi SE 15.0 mph - N/A   Partly Cloudy
3:20 PM 73.4 °F 53.6 °F 50% 29.80 in 6.2 mi SSE 15.0 mph - N/A   Partly Cloudy
3:50 PM 75.2 °F 53.6 °F 47% 29.80 in 6.2 mi SSE 13.8 mph - N/A   Partly Cloudy
4:20 PM 75.2 °F 55.4 °F 50% 29.77 in 6.2 mi SSE 13.8 mph - N/A   Partly Cloudy
4:50 PM 73.4 °F 53.6 °F 50% 29.77 in 6.2 mi SSE 13.8 mph - N/A   Partly Cloudy
5:20 PM 75.2 °F 53.6 °F 47% 29.77 in 6.2 mi SSE 13.8 mph - N/A   Partly Cloudy
6:50 PM 71.6 °F 55.4 °F 57% 29.74 in - SSE 8.1 mph - N/A   Clear
7:20 PM 69.8 °F 55.4 °F 60% 29.74 in - SE 6.9 mph - N/A   Clear
7:50 PM 68.0 °F 55.4 °F 64% 29.74 in - SSE 8.1 mph - N/A   Clear
8:50 PM 68.0 °F 55.4 °F 64% 29.74 in - SSE 6.9 mph - N/A   Clear
9:50 PM 64.4 °F 53.6 °F 68% 29.74 in - SSE 9.2 mph - N/A   Clear
10:20 PM 62.6 °F 53.6 °F 72% 29.74 in - SSE 9.2 mph - N/A   Clear
10:50 PM 60.8 °F 51.8 °F 72% 29.74 in - SE 8.1 mph - N/A   Clear
11:20 PM 59.0 °F 51.8 °F 77% 29.74 in - SE 8.1 mph - N/A   Clear
11:50 PM 57.2 °F 50.0 °F 77% 29.74 in - SE 6.9 mph - N/A   Clear